sat.trackr.live / text

‹ back to catalog

STARLINK-34915

NORAD 65187 · 2025-175P

PAYLOAD ACTIVE UNKNOWN

§ Identity

Operator
Country
US
Launch date
2025-08-14
Launch site
AFWTR
Launch vehicle
Mass (kg)
RCS (m²)

Purposes: comms

External: N2YO · Heavens-Above · Gunter

§ Orbital elements

Epoch: 2026-05-25T03:17:59.947296Z

Period
95.64 min
Inclination
97.4486°
Eccentricity
0.0001971
Mean motion
15.05659106 rev/d
Perigee alt
548.1 km
Apogee alt
550.8 km
Semi-major
6,927.6 km
B*
4.4401e-4
RAAN
17.6337°
Arg perigee
92.0307°
Mean anomaly
268.1146°
Rev number
4,414

§ Raw data

STARLINK-349151 65187U 25175P   26145.13749939  .00006355  00000+0  44401-3 0  99942 65187  97.4486  17.6337 0001971  92.0307 268.1146 15.05659106 44142

JSON: /api/v1/satellites/65187 · /tle

For live sub-satellite position, see the globe view (requires WebGL).

§ Visibility from observer

Set your observer location to see the next 7 days of passes ≥ 10°. The values pass through the URL so the page stays shareable.

No JS? Fill the form by hand. The geolocation button needs JavaScript.